This demonstration page uses our WeatherBlox Daily Observations layout. Learn more.

Left ArrowRight Arrow

39.12711, -84.51439

Hourly Observations for July 31, 2021

Temp ( °F °C ) Dew Point ( °F °C ) Humidity (%) Winds ( mph kmh ) Pressure ( in mb ) Visibility ( mi km ) Precip ( " mm )
12:53 am 00:53 Clear 68 20 62 16.7 81 81 N N/A 30.06 1018 10 16 N/A
1:53 am 01:53 Clear 67 19.4 63 17.2 87 87 N N/A 30.04 1017 10 16 N/A
2:53 am 02:53 Clear 66 18.9 63 17.2 90 90 N N/A 30.04 1017 9 14 N/A
3:53 am 03:53 Clear 65 18.3 62 16.7 90 90 N N/A 30.04 1017 9 14 N/A
4:53 am 04:53 Clear 66 18.9 63 17.2 90 90 N N/A 30.02 1017 10 16 N/A
5:53 am 05:53 Clear 65 18.3 63 17.2 93 93 N N/A 30.02 1017 9 14 N/A
6:53 am 06:53 Sunny 67 19.4 63 17.2 87 87 N N/A 30.02 1017 9 14 N/A
7:53 am 07:53 Sunny 67 19.4 65 18.3 93 93 N N/A 30.04 1017 8 13 N/A
8:53 am 08:53 Sunny 69 20.6 63 17.2 81 81 N N/A 30.04 1017 8 13 N/A
9:53 am 09:53 Mostly Sunny 72 22.2 64 17.8 76 76 NNE 3 6 30.03 1017 8 13 N/A
10:53 am 10:53 Mostly Sunny 74 23.3 62 16.7 67 67 SSW 5 7 30.02 1017 9 14 N/A
11:53 am 11:53 Sunny 76 24.4 63 17.2 64 64 SSW 5 7 30.03 1017 9 14 N/A
12:53 pm 12:53 Partly Cloudy 77 25 64 17.8 64 64 W 3 6 30.03 1017 9 14 N/A
1:53 pm 13:53 Mostly Cloudy 77 25 62 16.7 60 60 WSW 12 19 30.04 1017 10 16 N/A
2:53 pm 14:53 Cloudy with Light Rain 76 24.4 64 17.8 67 67 WSW 13 20 30.01 1016 10 16 0.00 0.00
3:53 pm 15:53 Cloudy 74 23.3 63 17.2 69 69 W 8 13 30.00 1016 10 16 0.00 0.00
4:53 pm 16:53 Cloudy 71 21.7 58 14.4 63 63 SW 6 9 29.96 1015 10 16 N/A
5:53 pm 17:53 Cloudy 73 22.8 57 13.9 57 57 NW 6 9 29.97 1015 10 16 0.00 0.00
6:53 pm 18:53 Cloudy 73 22.8 57 13.9 57 57 NNW 5 7 29.96 1015 8 13 N/A
7:53 pm 19:53 Cloudy with Haze 72 22.2 56 13.3 57 57 NW 7 11 29.96 1015 6 10 N/A
8:53 pm 20:53 Cloudy with Haze 71 21.7 55 12.8 57 57 NW 5 7 29.97 1015 5 8 N/A
9:53 pm 21:53 Cloudy with Haze 70 21.1 57 13.9 64 64 N N/A 29.97 1015 6 10 N/A
10:53 pm 22:53 Hazy 65 18.3 59 15 81 81 S 3 6 29.96 1014 6 10 N/A
11:53 pm 23:53 Clear with Mist and Fog 63 17.2 59 15 87 87 N N/A 29.94 1014 6 10 N/A

Powered by AerisWeather